Jendouba, Tunisia

4:01 PM CET on October 16, 2019 (GMT +0100)
Jendouba

Weather History for DTTN - August, 2019

Change the Weather History Date:

Friday, August 23, 2019

  Actual Average Record
Temperature  
Mean Temperature 82 °F -  
Max Temperature 93 °F 91 °F - ()
Min Temperature 70 °F 63 °F - ()
Cooling Degree Days 16    
Growing Degree Days 32 (Base 50)    
Moisture  
Dew Point 69 °F    
Average Humidity 68    
Maximum Humidity 94    
Minimum Humidity 31    
Precipitation  
Precipitation 0.04 in 0.04 in - ()
Sea Level Pressure  
Sea Level Pressure 30.02 in    
Wind  
Wind Speed 5 mph ()    
Max Wind Speed 12 mph    
Max Gust Speed -    
Visibility 6.3 miles    
Events      
T = Trace of Precipitation, MM = Missing Value Source: Averaged Metar Reports

Daily Weather History Graph

Daily Weather History Graph

Search for Another Location

Airport or City:

Astronomy

Aug. 23, 2019 Rise Set
Actual Time 5:48 AM CET 7:05 PM CET
Civil Twilight 5:21 AM CET 7:32 PM CET
Nautical Twilight 4:49 AM CET 8:04 PM CET
Astronomical Twilight 4:15 AM CET 8:38 PM CET
Moon 11:35 PM CET (8/23) 12:56 PM CET (8/23)
Length of Visible Light 14h 11m
Length of Day
13h 17m
Waning Gibbous, 52% of the Moon is Illuminated
Aug 23
Waning Gibbous
Aug 23
Last Quarter
Aug 30
New
Sep 6
First Quarter
Sep 14
Full

Hourly Weather History & Observations

Time (CET) Temp. Heat Index Dew Point Humidity Pressure Visibility Wind Dir Wind Speed Gust Speed Precip Events Conditions
12:00 AM 71.6 °F - 69.8 °F 94% 30.01 in 5.0 mi WSW 11.5 mph - N/A   Scattered Clouds
1:00 AM 72 °F - 69 °F 87% 30.00 in 5 mi SW 8.1 mph - -   Partly Cloudy
1:00 AM 71.6 °F - 69.8 °F 94% 30.01 in 5.0 mi SW 8.1 mph - N/A   Scattered Clouds
4:00 AM 72 °F - 68 °F 83% 30.05 in - NNE 1.2 mph - -  
5:00 AM 73.4 °F - 68.0 °F 83% 30.06 in 5.0 mi NNE 3.5 mph - N/A   Scattered Clouds
6:00 AM 71.6 °F - 68.0 °F 88% 30.06 in 5.0 mi SSE 3.5 mph - N/A   Scattered Clouds
7:00 AM 72 °F - 69 °F 88% 30.06 in 6 mi WSW 3.5 mph - -   Partly Cloudy
8:00 AM 75.2 °F - 69.8 °F 83% 30.06 in 6.2 mi SW 4.6 mph - N/A   Scattered Clouds
9:00 AM 78.8 °F - 69.8 °F 74% 30.09 in 6.2 mi SW 5.8 mph - N/A   Scattered Clouds
10:00 AM 78 °F - 72 °F 75% 30.08 in 6 mi SW 5.8 mph - -   Partly Cloudy
10:00 AM 78.8 °F - 71.6 °F 78% 30.09 in 6.2 mi SW 5.8 mph - N/A   Scattered Clouds
11:00 AM 84.2 °F 89.6 °F 71.6 °F 66% 30.09 in 6.2 mi South 3.5 mph - N/A   Scattered Clouds
12:00 PM 86.0 °F 90.4 °F 69.8 °F 58% 30.06 in 6.2 mi SSE 3.5 mph - N/A   Scattered Clouds
1:00 PM 91 °F - 67 °F 36% 30.01 in 9 mi South 2.3 mph - -   Partly Cloudy
2:00 PM 91.4 °F 95.4 °F 68.0 °F 46% 29.98 in 6.2 mi WNW 4.6 mph - N/A   Scattered Clouds
3:00 PM 93.2 °F 96.2 °F 66.2 °F 41% 29.98 in 6.2 mi NE 2.3 mph - N/A   Scattered Clouds
4:00 PM 93 °F - 66 °F 31% 29.97 in 9 mi North 4.6 mph - -   Partly Cloudy
5:00 PM 89.6 °F 94.7 °F 69.8 °F 52% 29.98 in 6.2 mi NNW 10.4 mph - N/A   Scattered Clouds
6:00 PM 87.8 °F 92.6 °F 69.8 °F 55% 29.98 in - NNW 9.2 mph - N/A   Unknown
7:00 PM 84 °F - 70 °F 53% 29.98 in 9 mi NNW 9.2 mph - -   Partly Cloudy
7:00 PM 84.2 °F 88.4 °F 69.8 °F 62% 29.98 in - NNW 9.2 mph - N/A   Scattered Clouds
8:00 PM 82.4 °F 86.3 °F 69.8 °F 66% 29.98 in 6.2 mi North 4.6 mph - N/A   Scattered Clouds
9:00 PM 80.6 °F 83.9 °F 69.8 °F 70% 30.01 in 6.2 mi ESE 4.6 mph - N/A   Partly Cloudy
10:00 PM 80 °F - 70 °F 63% 30.02 in 6 mi NE 4.6 mph - -   Scattered Clouds
10:00 PM 80.6 °F 83.9 °F 69.8 °F 70% 30.01 in 6.2 mi NE 4.6 mph - N/A   Partly Cloudy
11:00 PM 78.8 °F - 69.8 °F 74% 30.01 in 6.2 mi NE 4.6 mph - N/A   Partly Cloudy